Date String (YYYY-MM-DD hh:mm:ss) UTC,Instrument flags,Ambient pressure (hPa),Sample flow (lpm),Bypass flow (lpm),Sample temperature (°C),Ambient temperature (°C),ASC tube jacket temperature (°C),LED temperature (°C),Box temperature (°C),Sample RH (%),Span deviation,Mass concentration (μg/m³),Mass concentration (μg/m³),Mass concentration (μg/m³)
DateTimeUTC,F1_M11,P_M11,Q1_M11,Q2_M11,T1_M11,T2_M11,T3_M11,T4_M11,T5_M11,U1_M11,ZSPAN_M11,X0_M11,X2_M11,X1_M11
2021-11-23 02:00:00,,0829.0,5.00,0.00,29.4,28.5,00.0,38.6,31.1,07.1,0000.0,0022.86,0006.61,0004.97
2021-11-23 02:01:00,,0828.8,5.00,0.00,29.4,28.5,00.0,38.6,31.1,07.1,0000.0,0022.07,0006.56,0004.96
2021-11-23 02:02:00,,0828.9,4.99,0.00,29.4,28.5,00.0,38.6,31.1,07.1,0000.0,0022.13,0006.58,0004.96
2021-11-23 02:03:00,,0828.9,4.99,0.00,29.4,28.5,00.0,38.6,31.0,07.1,0000.0,0021.86,0006.58,0004.95
2021-11-23 02:04:00,,0828.9,5.00,0.00,29.4,28.5,00.0,38.5,31.0,07.1,0000.0,0021.48,0006.51,0004.94
2021-11-23 02:05:00,,0829.0,5.01,0.00,29.4,28.4,00.0,38.5,31.0,07.1,0000.0,0021.36,0006.49,0004.92
2021-11-23 02:06:00,,0828.9,5.01,0.00,29.4,28.4,00.0,38.5,31.0,07.1,0000.0,0020.93,0006.43,0004.92
2021-11-23 02:07:00,,0828.7,4.99,0.00,29.4,28.4,00.0,38.5,31.0,07.1,0000.0,0019.84,0006.39,0004.92
2021-11-23 02:08:00,,0829.0,5.00,0.00,29.4,28.4,00.0,38.5,31.0,07.1,0000.0,0019.74,0006.37,0004.92
2021-11-23 02:09:00,,0828.8,5.00,0.00,29.4,28.4,00.0,38.5,31.0,07.0,0000.0,0018.86,0006.36,0004.90
2021-11-23 02:10:00,,0828.7,5.00,0.00,29.4,28.3,00.0,38.5,31.0,06.9,0000.0,0018.86,0006.30,0004.87
2021-11-23 02:11:00,,0828.5,5.00,0.00,29.3,28.3,00.0,38.5,31.0,06.9,0000.0,0017.80,0006.22,0004.84
2021-11-23 02:12:00,,0828.5,5.00,0.00,29.3,28.4,00.0,38.5,31.0,06.8,0000.0,0016.37,0006.14,0004.80
2021-11-23 02:13:00,,0828.5,4.98,0.00,29.3,28.4,00.0,38.5,31.0,06.7,0000.0,0016.23,0006.04,0004.74
2021-11-23 02:14:00,,0828.4,5.00,0.00,29.3,28.4,00.0,38.5,30.9,06.6,0000.0,0015.90,0005.88,0004.65
2021-11-23 02:15:00,,0828.4,5.01,0.00,29.3,28.3,00.0,38.4,30.9,06.6,0001.8,0015.39,0005.85,0004.58
2021-11-23 02:16:00,,0828.4,5.00,0.00,29.3,28.3,00.0,38.4,30.9,06.6,0000.0,0015.19,0005.73,0004.50
2021-11-23 02:17:00,,0828.3,5.00,0.00,29.3,28.3,00.0,38.4,30.9,06.6,0000.0,0015.12,0005.59,0004.40
2021-11-23 02:18:00,,0828.3,4.99,0.00,29.3,28.3,00.0,38.4,30.9,06.6,0000.0,0013.87,0005.45,0004.30
2021-11-23 02:19:00,,0828.3,5.00,0.00,29.3,28.3,00.0,38.4,30.9,06.5,0000.0,0012.77,0005.33,0004.20
2021-11-23 02:20:00,,0828.3,5.00,0.00,29.2,28.3,00.0,38.4,30.9,06.6,0000.0,0012.57,0005.18,0004.09
2021-11-23 02:21:00,,0828.3,4.99,0.00,29.2,28.3,00.0,38.4,30.9,06.6,0000.0,0012.21,0005.13,0004.00
2021-11-23 02:22:00,,0828.2,4.99,0.00,29.2,28.3,00.0,38.4,30.8,06.5,0000.0,0011.75,0005.03,0003.93
2021-11-23 02:23:00,,0828.2,5.01,0.00,29.2,28.2,00.0,38.4,30.9,06.5,0000.0,0011.52,0004.97,0003.87
2021-11-23 02:24:00,,0828.2,5.01,0.00,29.2,28.2,00.0,38.3,30.9,06.4,0000.0,0011.40,0004.89,0003.81
2021-11-23 02:25:00,,0828.2,4.98,0.00,29.2,28.2,00.0,38.3,30.9,06.3,0000.0,0011.28,0004.79,0003.76
2021-11-23 02:26:00,,0828.2,5.01,0.00,29.2,28.2,00.0,38.3,30.9,06.2,0000.0,0011.23,0004.65,0003.69
2021-11-23 02:27:00,,0828.2,5.00,0.00,29.2,28.2,00.0,38.3,30.9,06.1,0000.0,0010.50,0004.50,0003.61
2021-11-23 02:28:00,,0828.2,4.99,0.00,29.2,28.2,00.0,38.3,30.9,06.0,0000.0,0010.48,0004.43,0003.55
2021-11-23 02:29:00,,0828.3,5.00,0.00,29.2,28.2,00.0,38.3,30.8,06.1,0000.0,0010.64,0004.33,0003.48
2021-11-23 02:30:00,,0828.2,5.01,0.00,29.2,28.2,00.0,38.3,30.8,06.1,0000.0,0010.60,0004.20,0003.41
2021-11-23 02:31:00,,0828.2,5.00,0.00,29.2,28.2,00.0,38.3,30.9,06.1,0000.0,0010.52,0004.15,0003.36
2021-11-23 02:32:00,,0828.2,4.99,0.00,29.2,28.2,00.0,38.3,30.8,06.2,0000.0,0010.22,0004.08,0003.32
2021-11-23 02:33:00,,0828.2,5.02,0.00,29.1,28.2,00.0,38.3,30.8,06.2,0000.0,0009.90,0003.98,0003.27
2021-11-23 02:34:00,,0828.3,4.98,0.00,29.1,28.2,00.0,38.3,30.8,06.2,0000.0,0009.81,0003.90,0003.23
2021-11-23 02:35:00,,0828.5,5.01,0.00,29.1,28.2,00.0,38.2,30.8,06.2,0000.0,0010.22,0003.87,0003.20
2021-11-23 02:36:00,,0828.2,5.01,0.00,29.1,28.2,00.0,38.2,30.8,06.1,0000.0,0010.16,0003.88,0003.16
2021-11-23 02:37:00,,0828.2,5.00,0.00,29.1,28.2,00.0,38.2,30.7,06.2,0000.0,0010.11,0003.87,0003.14
2021-11-23 02:38:00,,0828.2,5.00,0.00,29.0,28.1,00.0,38.2,30.7,06.2,0000.0,0010.26,0003.90,0003.14
2021-11-23 02:39:00,,0828.2,5.00,0.00,29.0,28.1,00.0,38.2,30.7,06.3,0000.0,0010.61,0003.92,0003.16
2021-11-23 02:40:00,,0828.3,5.00,0.00,29.0,28.1,00.0,38.2,30.7,06.4,0000.0,0011.11,0003.97,0003.18
2021-11-23 02:41:00,,0828.2,4.99,0.00,29.0,28.1,00.0,38.2,30.7,06.4,0000.0,0012.06,0004.00,0003.19
2021-11-23 02:42:00,,0828.2,5.01,0.00,29.0,28.1,00.0,38.2,30.7,06.4,0000.0,0013.57,0004.00,0003.20
2021-11-23 02:43:00,,0828.2,5.01,0.00,29.0,28.1,00.0,38.1,30.7,06.4,0000.0,0013.55,0003.97,0003.19
2021-11-23 02:44:00,,0828.2,4.99,0.00,29.0,28.1,00.0,38.1,30.7,06.4,0000.0,0013.70,0004.04,0003.19
2021-11-23 02:45:00,,0828.1,5.00,0.00,29.0,28.1,00.0,38.1,30.7,06.3,0000.0,0013.63,0004.04,0003.18
2021-11-23 02:46:00,,0828.1,5.01,0.00,29.0,28.1,00.0,38.1,30.7,06.4,0000.0,0013.03,0004.03,0003.18
2021-11-23 02:47:00,,0828.1,4.99,0.00,29.0,28.1,00.0,38.1,30.7,06.4,0000.0,0013.03,0003.97,0003.18
2021-11-23 02:48:00,,0828.2,5.01,0.00,29.0,28.1,00.0,38.1,30.7,06.4,0000.0,0013.18,0003.97,0003.20
2021-11-23 02:49:00,,0828.1,4.99,0.00,29.0,28.1,00.0,38.1,30.7,06.4,0000.0,0013.07,0004.01,0003.22
2021-11-23 02:50:00,,0828.1,5.01,0.00,29.0,28.1,00.0,38.1,30.7,06.6,0000.0,0013.22,0004.04,0003.25
2021-11-23 02:51:00,,0828.1,5.00,0.00,29.0,28.1,00.0,38.1,30.6,06.5,0000.0,0012.53,0004.08,0003.29
2021-11-23 02:52:00,,0828.1,4.99,0.00,29.0,28.1,00.0,38.1,30.6,06.5,0000.0,0012.30,0004.17,0003.32
2021-11-23 02:53:00,,0828.1,5.00,0.00,29.0,28.1,00.0,38.1,30.6,06.5,0000.0,0011.10,0004.22,0003.35
2021-11-23 02:54:00,,0828.1,5.01,0.00,28.9,28.0,00.0,38.1,30.6,06.7,0000.0,0010.97,0004.26,0003.39
2021-11-23 02:55:00,,0828.0,4.99,0.00,28.9,28.0,00.0,38.1,30.6,06.7,0000.0,0011.60,0004.32,0003.44
2021-11-23 02:56:00,,0828.0,5.01,0.00,28.9,28.0,00.0,38.0,30.6,06.6,0000.0,0011.60,0004.36,0003.48
2021-11-23 02:57:00,,0827.9,4.99,0.00,28.9,28.0,00.0,38.0,30.6,06.6,0000.0,0012.09,0004.42,0003.53
2021-11-23 02:58:00,,0828.0,4.99,0.00,28.9,28.0,00.0,38.0,30.6,06.7,0000.0,0012.08,0004.50,0003.57
2021-11-23 02:59:00,,0827.9,5.01,0.00,28.9,28.0,00.0,38.0,30.6,06.9,0000.0,0012.68,0004.66,0003.65
